Weather History for Bangor, ME

Change the Weather History Date:

Monday, September 3, 2012

  Actual Average Record
Temperature  
Mean Temperature 60 °F 63 °F  
Max Temperature 73 °F 74 °F 94 °F (1937)
Min Temperature 47 °F 52 °F 37 °F (1926)
Degree Days  
Heating Degree Days 5 3  
Month to date heating degree days 17 9  
Since 1 July heating degree days 19 72  
Cooling Degree Days 0 2  
Month to date cooling degree days 0 6  
Year to date cooling degree days 384 300  
Growing Degree Days 10 (Base 50)    
Moisture  
Dew Point 54 °F    
Average Humidity 79    
Maximum Humidity 100    
Minimum Humidity 57    
Precipitation  
Precipitation 0.00 in 0.11 in 1.86 in (1972)
Month to date precipitation 0.12 0.32  
Year to date precipitation 24.41 26.57  
Snow  
Snow 0.00 in 0.00 in 0.00 in (2002)
Month to date snowfall 0.0 0.0  
Since 1 July snowfall 0.0 0.0  
Since 1 September snowfall 0.0 0.0  
Snow Depth 0.00 in    
Sea Level Pressure  
Sea Level Pressure 30.19 in    
Wind  
Wind Speed 2 mph (South)    
Max Wind Speed 13 mph    
Max Gust Speed 16 mph    
Visibility 7 miles    
Events Fog    
T = Trace of Precipitation, MM = Missing Value Source: NWS Daily Summary

Daily Weather History Graph

Daily Weather History Graph

Search for Another Location

Airport:

Trip Planner

Search our weather history database for the weather conditions in past years. The results will help you decide how hot, cold, wet, or windy it might be!

Date:

Astronomy

Sep. 03, 2012 Rise Set
Actual Time 6:00 AM EDT 7:07 PM EDT
Civil Twilight 5:30 AM EDT 7:37 PM EDT
Nautical Twilight 4:54 AM EDT 8:13 PM EDT
Astronomical Twilight 4:16 AM EDT 8:51 PM EDT
Moon 8:12 PM EDT (9/3) 9:16 AM EDT (9/3)
Length of Visible Light 14h 07m
Length of Day
13h 07m
Waning Gibbous, 90% of the Moon is Illuminated
Sep 3
Waning Gibbous
Sep 8
Last Quarter
Sep 15
New
Sep 22
First Quarter
Sep 29
Full

Hourly Weather History & Observations

Time (EDT) Temp. Dew Point Humidity Pressure Visibility Wind Dir Wind Speed Gust Speed Precip Events Conditions
12:53 AM 52.0 °F 52.0 °F 100% 30.18 in 10.0 mi Calm Calm - N/A Fog Patches of Fog
1:24 AM 51.8 °F 51.8 °F 100% 30.18 in 5.0 mi South 3.5 mph - N/A Fog Patches of Fog
1:53 AM 52.0 °F 52.0 °F 100% 30.18 in 6.0 mi SSW 3.5 mph - N/A Fog Patches of Fog
2:53 AM 51.1 °F 51.1 °F 100% 30.18 in 10.0 mi SSW 3.5 mph - N/A Fog Patches of Fog
3:53 AM 50.0 °F 50.0 °F 100% 30.18 in 6.0 mi Calm Calm - N/A Fog Patches of Fog
4:11 AM 48.2 °F 48.2 °F 100% 30.19 in 1.8 mi Calm Calm - N/A Fog Patches of Fog
4:21 AM 48.2 °F 48.2 °F 100% 30.19 in 6.0 mi Calm Calm - 0.01 in Fog Patches of Fog
4:40 AM 48.2 °F 48.2 °F 100% 30.19 in 6.0 mi Calm Calm - 0.01 in Fog Patches of Fog
4:53 AM 48.2 °F 48.2 °F 100% 30.19 in 6.0 mi Calm Calm - N/A   Mostly Cloudy
5:09 AM 48.2 °F 48.2 °F 100% 30.20 in 1.0 mi SSE 3.5 mph - N/A   Overcast
5:53 AM 52.0 °F 52.0 °F 100% 30.21 in 3.0 mi Calm Calm - N/A   Overcast
6:22 AM 53.6 °F 53.6 °F 100% 30.22 in 2.0 mi Calm Calm - N/A   Overcast
6:53 AM 54.0 °F 54.0 °F 100% 30.22 in 2.0 mi Calm Calm - N/A   Overcast
7:53 AM 55.0 °F 55.0 °F 100% 30.23 in 2.0 mi Calm Calm - N/A   Overcast
8:33 AM 55.4 °F 55.4 °F 100% 30.23 in 3.0 mi Calm Calm - N/A   Overcast
8:53 AM 55.9 °F 55.9 °F 100% 30.23 in 4.0 mi SSW 3.5 mph - N/A   Overcast
9:20 AM 55.4 °F 55.4 °F 100% 30.23 in 4.0 mi Calm Calm - N/A   Overcast
9:53 AM 57.9 °F 55.9 °F 93% 30.23 in 8.0 mi SW 3.5 mph - N/A   Overcast
10:24 AM 59.0 °F 55.4 °F 88% 30.23 in 10.0 mi South 3.5 mph - N/A   Overcast
10:53 AM 60.1 °F 55.0 °F 83% 30.23 in 10.0 mi Variable 3.5 mph - N/A   Overcast
11:53 AM 63.0 °F 55.9 °F 78% 30.21 in 10.0 mi ESE 4.6 mph - N/A   Mostly Cloudy
12:00 PM 62.6 °F 55.4 °F 77% 30.22 in 10.0 mi Calm Calm - N/A   Mostly Cloudy
12:53 PM 66.0 °F 57.0 °F 73% 30.20 in 10.0 mi Variable 3.5 mph - N/A   Mostly Cloudy
1:53 PM 69.1 °F 57.0 °F 65% 30.18 in 10.0 mi Variable 3.5 mph - N/A   Scattered Clouds
2:53 PM 71.1 °F 57.0 °F 61% 30.17 in 10.0 mi SSE 3.5 mph - N/A   Scattered Clouds
3:53 PM 73.0 °F 57.9 °F 59% 30.15 in 10.0 mi South 11.5 mph - N/A   Mostly Cloudy
4:53 PM 71.1 °F 59.0 °F 66% 30.14 in 10.0 mi South 9.2 mph - N/A   Mostly Cloudy
5:53 PM 68.0 °F 59.0 °F 73% 30.14 in 10.0 mi South 9.2 mph - N/A   Scattered Clouds
6:53 PM 64.9 °F 59.0 °F 81% 30.14 in 10.0 mi South 6.9 mph - N/A   Scattered Clouds
7:53 PM 63.0 °F 57.9 °F 84% 30.15 in 10.0 mi South 4.6 mph - N/A   Partly Cloudy
8:53 PM 61.0 °F 57.0 °F 87% 30.16 in 10.0 mi South 4.6 mph - N/A   Partly Cloudy
9:53 PM 60.1 °F 57.9 °F 93% 30.15 in 10.0 mi South 6.9 mph - N/A   Partly Cloudy
10:53 PM 59.0 °F 57.0 °F 93% 30.15 in 10.0 mi SSW 5.8 mph - N/A   Clear
11:53 PM 59.0 °F 57.0 °F 93% 30.13 in 10.0 mi South 5.8 mph - N/A   Clear